PORT of AGIOS KONSTANTINOS

Valsts: Greece Valsts: Greece [GR]
Platums / garums: 38.758095° / 22.866425° Rādīt kartē
Vietējais laiks:  [UTC +3]
UN/LOCODE: GRAKO
Gaidāmās pienākšanas: 7

Nesenās pienākšanas un atiešanas


Kuģa nosaukums
Pienākšana (UTC)
Pienākšana (LT)
Atiešana (UTC)
Atiešana (LT)
Vessel Type: Pasažieru kuģi  OSIOS DAVID 2014-08-27 07:08:00 2014-08-27 10:08:00 2014-08-27 07:29:00 2014-08-27 10:29:00
Vessel Type: Pasažieru kuģi  EXPRESS PEGASUS 2014-08-26 18:16:00 2014-08-26 21:16:00 2014-08-27 07:16:00 2014-08-27 10:16:00
Vessel Type: Ātrgaitas peldlīdzeklis  FLYINGCAT 6 2014-08-26 16:18:00 2014-08-26 19:18:00 2014-08-26 16:48:00 2014-08-26 19:48:00
Vessel Type: Pasažieru kuģi  OSIOS DAVID 2014-08-26 11:31:00 2014-08-26 14:31:00 2014-08-26 14:14:00 2014-08-26 17:14:00
Vessel Type: Pasažieru kuģi  EXPRESS PEGASUS 2014-08-25 18:21:00 2014-08-25 21:21:00 2014-08-26 07:12:00 2014-08-26 10:12:00
Vessel Type: Ātrgaitas peldlīdzeklis  FLYINGCAT 6 2014-08-25 16:17:00 2014-08-25 19:17:00 2014-08-25 16:49:00 2014-08-25 19:49:00
Vessel Type: Ātrgaitas peldlīdzeklis  FLYING DOLPHIN ERATO 2014-08-25 15:34:00 2014-08-25 18:34:00 2014-08-25 15:53:00 2014-08-25 18:53:00
Vessel Type: Pasažieru kuģi  OSIOS DAVID 2014-08-25 08:03:00 2014-08-25 11:03:00 2014-08-25 08:35:00 2014-08-25 11:35:00
Vessel Type: Pasažieru kuģi  EXPRESS PEGASUS 2014-08-24 18:03:00 2014-08-24 21:03:00 2014-08-25 07:13:00 2014-08-25 10:13:00
Vessel Type: Pasažieru kuģi  OSIOS DAVID 2014-08-25 06:03:00 2014-08-25 09:03:00 2014-08-25 06:37:00 2014-08-25 09:37:00

Gaidāmās pienākšanas


Kuģa nosaukums
Scheduled Arrival (UTC)
Paredzētā pienākšana (vietējais laiks)
Plānotā pienākšana (UTC)
Plānotais pienākšanas laiks (vietējais laiks)
Vessel Type: Ātrgaitas peldlīdzeklis  FLYINGCAT 6 2014-08-26 16:20:00 2014-08-26 19:20:00
Vessel Type: Ātrgaitas peldlīdzeklis  FLYINGCAT 6 2014-08-26 16:20:00 2014-08-26 19:20:00
Vessel Type: Ātrgaitas peldlīdzeklis  FLYINGCAT 6 2014-08-26 16:20:00 2014-08-26 19:20:00
Vessel Type: Ātrgaitas peldlīdzeklis  FLYINGCAT 6 2014-08-26 16:20:00 2014-08-26 19:20:00
Vessel Type: Pasažieru kuģi  EXPRESS PEGASUS 2014-08-26 17:30:00 2014-08-26 20:30:00
Vessel Type: Pasažieru kuģi  EXPRESS PEGASUS 2014-08-26 17:30:00 2014-08-26 20:30:00
Vessel Type: Pasažieru kuģi  EXPRESS PEGASUS 2014-08-26 17:30:00 2014-08-26 20:30:00

Wind Forecast


    
Laiks (UTC)
Ātrums
DirectionDirection
Temperature
2014-08-27 12:00:00 6 knots 73° 27°C
2014-08-27 15:00:00 5 knots 78° 27°C
2014-08-27 18:00:00 2 knots 85° 27°C
2014-08-27 21:00:00 7 knots 263° 27°C
2014-08-28 00:00:00 9 knots 301° 26°C
2014-08-28 03:00:00 8 knots 307° 25°C
2014-08-28 06:00:00 10 knots 327° 26°C
2014-08-28 09:00:00 12 knots 19° 28°C
2014-08-28 12:00:00 12 knots 49° 27°C
2014-08-28 15:00:00 9 knots 51° 26°C
2014-08-28 18:00:00 4 knots 47° 26°C
2014-08-28 21:00:00 4 knots 342° 26°C
2014-08-29 00:00:00 9 knots 356° 26°C
2014-08-29 03:00:00 11 knots 35° 25°C
2014-08-29 06:00:00 14 knots 37° 25°C
2014-08-29 09:00:00 15 knots 36° 25°C